When you browse on this site, cookies collect data to enhance your experience and personalize the content and advertising you see.
Visit our Privacy Policy to learn more. By continuing to use the site, you agree to this use of cookies and data.
  • In Portugal
  • List of Countries
  • For 7 days
  • Water Temperature
  • Weather Map
  • Weather Widgets
  • user-avatar
    Login

    Hourly Weather Townsville

    Today, 22 September, Sunday

    Time Temperature Precipitation Wind Pressure Humidity
    00:00 +19°C° 0 mm 3 mps 758 mmHg 87%
    01:00 +19°C° 0 mm 3 mps 758 mmHg 87%
    02:00 +19°C° 0 mm 3 mps 758 mmHg 88%
    03:00 +18°C° 0 mm 3 mps 758 mmHg 88%
    04:00 +18°C° 0 mm 3 mps 758 mmHg 89%
    05:00 +19°C° 0 mm 3 mps 758 mmHg 88%
    06:00 +19°C° 0 mm 3 mps 758 mmHg 87%
    07:00 +19°C° 0 mm 4 mps 759 mmHg 86%
    08:00 +21°C° 0.1 mm 4 mps 759 mmHg 76%
    09:00 +25°C° 0.1 mm 4 mps 759 mmHg 65%
    10:00 +27°C° 0 mm 5 mps 759 mmHg 53%
    11:00 +28°C° 0 mm 5 mps 759 mmHg 50%
    12:00 +29°C° 0 mm 5 mps 758 mmHg 46%
    13:00 +29°C° 0 mm 6 mps 758 mmHg 43%
    14:00 +29°C° 0 mm 6 mps 758 mmHg 46%
    15:00 +28°C° 0 mm 6 mps 757 mmHg 49%
    16:00 +28°C° 0 mm 6 mps 757 mmHg 52%
    17:00 +26°C° 0 mm 5 mps 758 mmHg 61%
    18:00 +23°C° 0 mm 5 mps 758 mmHg 70%
    19:00 +21°C° 0 mm 4 mps 758 mmHg 79%
    20:00 +21°C° 0 mm 4 mps 759 mmHg 83%
    21:00 +20°C° 0 mm 4 mps 759 mmHg 86%
    22:00 +19°C° 0 mm 4 mps 760 mmHg 89%
    23:00 +19°C° 0 mm 4 mps 759 mmHg 89%

    Tomorrow, 23 September, Monday

    Time Temperature Precipitation Wind Pressure Humidity
    00:00 +19°C° 0 mm 3 mps 759 mmHg 89%
    01:00 +19°C° 0 mm 3 mps 759 mmHg 89%
    02:00 +19°C° 0 mm 3 mps 759 mmHg 90%
    03:00 +18°C° 0 mm 3 mps 759 mmHg 92%
    04:00 +18°C° 0 mm 3 mps 759 mmHg 93%
    05:00 +18°C° 0 mm 3 mps 759 mmHg 91%
    06:00 +19°C° 0 mm 3 mps 759 mmHg 89%
    07:00 +19°C° 0 mm 3 mps 759 mmHg 88%
    08:00 +22°C° 0 mm 3 mps 759 mmHg 76%
    09:00 +25°C° 0 mm 4 mps 759 mmHg 64%
    10:00 +28°C° 0 mm 4 mps 760 mmHg 52%
    11:00 +28°C° 0 mm 5 mps 759 mmHg 50%
    12:00 +29°C° 0 mm 5 mps 758 mmHg 49%
    13:00 +29°C° 0 mm 6 mps 757 mmHg 47%
    14:00 +28°C° 0 mm 6 mps 757 mmHg 50%
    15:00 +28°C° 0 mm 6 mps 757 mmHg 53%
    16:00 +27°C° 0 mm 5 mps 757 mmHg 55%
    17:00 +26°C° 0 mm 5 mps 757 mmHg 63%
    18:00 +23°C° 0 mm 4 mps 757 mmHg 70%
    19:00 +21°C° 0 mm 4 mps 758 mmHg 77%
    20:00 +20°C° 0 mm 3 mps 758 mmHg 82%
    21:00 +20°C° 0 mm 3 mps 759 mmHg 86%
    22:00 +20°C° 0 mm 3 mps 759 mmHg 91%
    23:00 +19°C° 0 mm 3 mps 759 mmHg 92%

    Day after tomorrow, 24 September, Tuesday

    Time Temperature Precipitation Wind Pressure Humidity
    00:00 +19°C° 0 mm 3 mps 758 mmHg 92%
    01:00 +19°C° 0 mm 3 mps 758 mmHg 93%
    02:00 +19°C° 0 mm 3 mps 758 mmHg 93%
    03:00 +19°C° 0 mm 3 mps 758 mmHg 93%
    04:00 +18°C° 0 mm 3 mps 757 mmHg 93%
    05:00 +19°C° 0 mm 3 mps 758 mmHg 92%
    06:00 +19°C° 0 mm 3 mps 758 mmHg 91%
    07:00 +19°C° 0 mm 2 mps 758 mmHg 89%
    08:00 +22°C° 0 mm 3 mps 758 mmHg 76%
    09:00 +25°C° 0 mm 3 mps 759 mmHg 62%
    10:00 +28°C° 0 mm 4 mps 759 mmHg 48%
    11:00 +28°C° 0 mm 4 mps 758 mmHg 47%
    12:00 +29°C° 0 mm 5 mps 758 mmHg 46%
    13:00 +29°C° 0 mm 5 mps 757 mmHg 45%
    14:00 +29°C° 0 mm 5 mps 757 mmHg 47%
    15:00 +28°C° 0 mm 5 mps 757 mmHg 49%
    16:00 +28°C° 0 mm 5 mps 756 mmHg 51%
    17:00 +26°C° 0 mm 5 mps 757 mmHg 61%
    18:00 +23°C° 0 mm 4 mps 757 mmHg 71%
    19:00 +21°C° 0 mm 4 mps 758 mmHg 81%
    20:00 +20°C° 0 mm 4 mps 758 mmHg 83%
    21:00 +20°C° 0 mm 4 mps 759 mmHg 85%
    22:00 +20°C° 0 mm 4 mps 759 mmHg 87%
    23:00 +20°C° 0 mm 4 mps 759 mmHg 87%

    25 September, Wednesday

    Time Temperature Precipitation Wind Pressure Humidity
    00:00 +19°C° 0 mm 4 mps 758 mmHg 88%
    01:00 +19°C° 0 mm 4 mps 758 mmHg 88%
    02:00 +19°C° 0 mm 3 mps 758 mmHg 89%
    03:00 +19°C° 0 mm 3 mps 758 mmHg 89%
    04:00 +19°C° 0 mm 3 mps 757 mmHg 90%
    05:00 +19°C° 0 mm 3 mps 758 mmHg 88%
    06:00 +20°C° 0 mm 4 mps 758 mmHg 86%
    07:00 +20°C° 0 mm 4 mps 759 mmHg 83%
    08:00 +22°C° 0 mm 4 mps 759 mmHg 74%
    09:00 +25°C° 0 mm 5 mps 759 mmHg 64%
    10:00 +27°C° 0 mm 6 mps 759 mmHg 54%
    11:00 +28°C° 0 mm 6 mps 758 mmHg 51%
    12:00 +29°C° 0 mm 6 mps 758 mmHg 49%
    13:00 +30°C° 0 mm 6 mps 757 mmHg 46%
    14:00 +29°C° 0 mm 7 mps 757 mmHg 49%
    15:00 +28°C° 0 mm 7 mps 756 mmHg 52%
    16:00 +28°C° 0 mm 7 mps 756 mmHg 55%
    17:00 +26°C° 0 mm 6 mps 757 mmHg 63%
    18:00 +23°C° 0 mm 5 mps 757 mmHg 72%
    19:00 +21°C° 0 mm 5 mps 758 mmHg 81%
    20:00 +21°C° 0 mm 5 mps 758 mmHg 83%
    21:00 +21°C° 0 mm 4 mps 759 mmHg 86%
    22:00 +20°C° 0 mm 4 mps 759 mmHg 88%
    23:00 +20°C° 0 mm 4 mps 759 mmHg 87%

    26 September, Thursday

    Time Temperature Precipitation Wind Pressure Humidity
    00:00 +20°C° 0 mm 4 mps 759 mmHg 87%
    01:00 +20°C° 0 mm 4 mps 758 mmHg 87%
    02:00 +20°C° 0 mm 4 mps 758 mmHg 88%
    03:00 +20°C° 0 mm 4 mps 758 mmHg 89%
    04:00 +19°C° 0 mm 4 mps 757 mmHg 90%
    05:00 +20°C° 0 mm 4 mps 758 mmHg 88%
    06:00 +20°C° 0 mm 3 mps 758 mmHg 86%
    07:00 +20°C° 0 mm 3 mps 759 mmHg 84%
    08:00 +22°C° 0 mm 4 mps 759 mmHg 73%
    09:00 +26°C° 0 mm 4 mps 759 mmHg 63%
    10:00 +28°C° 0 mm 5 mps 759 mmHg 52%
    11:00 +28°C° 0 mm 5 mps 758 mmHg 51%
    12:00 +29°C° 0 mm 6 mps 757 mmHg 50%
    13:00 +29°C° 0 mm 6 mps 757 mmHg 49%
    14:00 +29°C° 0 mm 6 mps 756 mmHg 50%
    15:00 +28°C° 0 mm 6 mps 756 mmHg 51%
    16:00 +28°C° 0 mm 6 mps 756 mmHg 52%
    17:00 +26°C° 0 mm 5 mps 756 mmHg 62%
    18:00 +23°C° 0 mm 4 mps 757 mmHg 72%
    19:00 +21°C° 0 mm 4 mps 757 mmHg 82%
    20:00 +21°C° 0 mm 4 mps 758 mmHg 85%
    21:00 +21°C° 0 mm 4 mps 758 mmHg 88%
    22:00 +21°C° 0 mm 4 mps 758 mmHg 91%
    23:00 +20°C° 0 mm 3 mps 758 mmHg 91%

    27 September, Friday

    Time Temperature Precipitation Wind Pressure Humidity
    00:00 +20°C° 0 mm 3 mps 758 mmHg 91%
    01:00 +20°C° 0 mm 3 mps 758 mmHg 90%
    02:00 +20°C° 0 mm 3 mps 757 mmHg 91%
    03:00 +19°C° 0 mm 3 mps 757 mmHg 91%
    04:00 +19°C° 0 mm 3 mps 757 mmHg 91%
    05:00 +20°C° 0 mm 3 mps 757 mmHg 89%
    06:00 +20°C° 0 mm 3 mps 758 mmHg 87%
    07:00 +21°C° 0 mm 3 mps 758 mmHg 85%
    08:00 +24°C° 0 mm 3 mps 758 mmHg 74%
    09:00 +26°C° 0 mm 4 mps 758 mmHg 63%
    10:00 +28°C° 0 mm 4 mps 758 mmHg 52%
    11:00 +29°C° 0 mm 4 mps 758 mmHg 52%
    12:00 +29°C° 0 mm 4 mps 757 mmHg 52%
    13:00 +29°C° 0 mm 5 mps 756 mmHg 52%
    14:00 +29°C° 0 mm 5 mps 756 mmHg 54%
    15:00 +28°C° 0 mm 5 mps 756 mmHg 56%
    16:00 +28°C° 0 mm 5 mps 755 mmHg 58%
    17:00 +26°C° 0 mm 4 mps 756 mmHg 68%
    18:00 +25°C° 0 mm 4 mps 756 mmHg 78%
    19:00 +22°C° 0 mm 4 mps 757 mmHg 88%
    20:00 +22°C° 0 mm 4 mps 757 mmHg 89%
    21:00 +21°C° 0 mm 4 mps 758 mmHg 91%
    22:00 +21°C° 0 mm 3 mps 758 mmHg 93%
    23:00 +21°C° 0.1 mm 3 mps 758 mmHg 93%
    Show more